Regional Weather Roundup
Issued by NWS

Home | Current Version | Previous Version | Text Only | Print | Product List | Glossary On
Versions: 1 2 3 4 5 6 7 8 9 10 11 12 13 14 15 16 17 18 19 20 21 22 23 24 25 26 27 28 29 30 31 32 33 34 35 36 37 38 39 40 41 42 43 44 45 46 47 48 49 50
000
ASUS44 KFWD 270915
RWRTX
NORTH TEXAS HOURLY WEATHER ROUNDUP
NATIONAL WEATHER SERVICE FORT WORTH TX
400 AM CDT MON APR 27 2015

NOTE: "FAIR" INDICATES FEW OR NO CLOUDS BELOW 12,000 FEET WITH NO
SIGNIFICANT WEATHER AND/OR OBSTRUCTIONS TO VISIBILITY.

TXZ118-119-271000-
DALLAS/FORT WORTH METROPLEX

CITY           SKY/WX    TMP DP  RH WIND       PRES   REMARKS
DFW AIRPORT    CLOUDY    69  60  73 SE26G37   29.63F
DALLAS LOVE    LGT RAIN  69  60  73 SE22G33   29.65F
FTW MEACHAM    CLOUDY    69  61  75 E20G31    29.62S
DAL-EXECUTIVE  LGT RAIN  64  61  90 E15       29.65F
FTW-ALLIANCE   CLOUDY    70  55  59 E20G29    29.62S
FTW-NAS-JRB      N/A    N/A N/A N/A MISG        N/A
FTW-SPINKS     CLOUDY    64  60  88 E6        29.65S
ARLINGTON      CLOUDY    66  60  81 E16G24    29.64S
GRAND PRAIRIE  CLOUDY    65  62  88 E10G28    29.65F
ADDISON        CLOUDY    71  58  64 E16G30    29.67S
MESQUITE       CLOUDY    67  64  90 SE6       29.69F
LANCASTER      CLOUDY    63  60  88 SE7       29.69F
$$

TXZ091>094-102>105-117-120-121-131>134-271000-
NORTH CENTRAL TEXAS

CITY           SKY/WX    TMP DP  RH WIND       PRES   REMARKS
SHRMAN/DENISON CLOUDY    65  64  97 E17G23    29.75R
GAINESVILLE    LGT RAIN  64  63  95 E16G24    29.73R
BOWIE          LGT RAIN  61  60  95 NE7       29.67F
BRIDGEPORT     CLOUDY    62  58  87 E6        29.67F
DECATUR        CLOUDY    64  56  76 E8        29.66S
DENTON         CLOUDY    66  57  72 E16G25    29.65R
MCKINNEY       CLOUDY    69  63  81 E12G21    29.68R
GREENVILLE     LGT RAIN  64  63  94 E8        29.71S
ROCKWALL       CLOUDY    68  61  78 E10G23    29.67F
TERRELL        CLOUDY    68  65  90 SE10      29.68R
WAXAHACHIE     LGT RAIN  62  62 100 CALM      29.65F
CLEBURNE       CLOUDY    63  63 100 E8        29.65F
GRANBURY         N/A     68  60  75 E12G17    29.63F
$$

TXZ083>090-098>101-113>116-127>130-139>142-154-155-271000-
WESTERN NORTH TEXAS

CITY           SKY/WX    TMP DP  RH WIND       PRES   REMARKS
WICHITA FALLS  CLOUDY    60  58  92 NE14      29.71R
WF-KICKAPOO    CLOUDY    62  59  91 NE10G17   29.71R
VERNON         CLOUDY    56  51  82 N12       29.73R
ABILENE        MOCLDY    59  55  87 N10       29.69S
ABILENE-DYESS  CLOUDY    59  55  87 NE10      29.68R
BRECKENRIDGE   CLOUDY    61  59  94 NW6       29.67F
GRAHAM         CLOUDY    61  60  95 N6        29.67S
MINERAL WELLS  CLOUDY    64  61  90 NE5       29.63S
STEPHENVILLE   CLOUDY    62  58  86 W5        29.66F
COMANCHE       MOCLDY    60  60 100 NW9       29.66F
BROWNWOOD      PTCLDY    59  59 100 NW9       29.66F
COLEMAN        MOCLDY    60  57  92 NE13      29.66F
BRADY          PTCLDY    61  59  94 N12       29.65S
$$

TXZ143>147-156>162-174-175-271000-
CENTRAL TEXAS

CITY           SKY/WX    TMP DP  RH WIND       PRES   REMARKS
WACO           CLOUDY    63  61  93 NE9       29.63F
WACO-MCGREGOR  CLOUDY    63  55  77 N10       29.64R
CORSICANA      RAIN      66  61  84 SE9       29.74R
MEXIA          DRIZZLE   61  60  96 NE6       29.70F
HEARNE         TSTM      63  62  95 N9G18     29.71S
CAMERON        TSTM      63  63  98 E14G20    29.56F
TEMPLE         CLOUDY    61  55  82 E13       29.58R
KILLEEN        CLOUDY    63  60  89 N13       29.62R
KILLEEN-SKYLRK CLOUDY    63  55  77 NW8       29.60R
FORT HOOD      CLOUDY    63  61  91 NW10      29.62R
GATESVILLE     CLOUDY    63  63 100 N3        29.66R
HAMILTON       CLOUDY    62  62  97 SE7       29.65R
LAMPASAS       MOCLDY    63  60  91 W6        29.61R
$$

TXZ095>097-106>112-122>126-135>138-148>153-164>167-271000-
EAST TEXAS

CITY           SKY/WX    TMP DP  RH WIND       PRES   REMARKS
PARIS          CLOUDY    57  52  82 MISG      29.75F
SULPHUR SPRNGS LGT RAIN  62  61  96 SE18G52   29.71F
MOUNT PLEASANT CLOUDY    61  57  86 NE9G17    29.85R
GILMER         TSTM      63  60  91 N8G17     29.81R
TYLER          TSTM      68  64  87 N10       29.79R
LONGVIEW       LGT RAIN  65  60  84 NE16G23   29.75R
MARSHALL       CLOUDY    66  61  84 NE13G18   29.79S
ATHENS         TSTM      63  59  88 NE8       29.76R
PALESTINE      RAIN     N/A N/A N/A N21G30    29.71R
JACKSONVILLE   TSTM      71  69  93 NW5       29.69S
HENDERSON      CLOUDY    69  65  88 N14G24    29.72R
NACOGDOCHES    CLOUDY    70  66  88 NE10G16   29.65F
LUFKIN         CLOUDY    75  70  84 E10       29.60F HAZE
$$

SUPPLEMENTAL OBSERVATIONS (CENTRAL)

CITY           SKY/WX    TMP DP  RH WIND       PRES   REMARKS
LAKE TEXOMA      N/A     63  59  88 E8          N/A
CADDO GRASSLND   N/A     61  57  88 NE6G18      N/A
PAT MAYSE LAKE   N/A     57  55  94 N13         N/A
GREENVILLE       N/A     63  57  82 E12G26      N/A
CEDAR HILL       N/A     63  59  88 E5G18       N/A
ATHENS           N/A     64  61  88 E2          N/A
LAKE LIMESTONE   N/A     63  59  88 NE9G18      N/A
MCGREGOR         N/A     63  57  82 N6G25       N/A
TEMPLE           N/A     63  59  88 NE12G21     N/A
$$

SUPPLEMENTAL OBSERVATIONS (WEST)

CITY           SKY/WX    TMP DP  RH WIND       PRES   REMARKS
MILLERS CREEK    N/A     57  55  94 VRB9G20     N/A
POSSUM KINGDOM   N/A     61  59  94 NW6         N/A
LBJ GRASSLAND    N/A     64  57  77 NE7         N/A
GRANBURY         N/A     66  59  77 E14G28      N/A
HAMBY            N/A     57  52  82 N6G20       N/A
IVIE RESERVOIR   N/A     61  55  82 NE6G16      N/A
COLORADO BEND    N/A     61  55  82 N8          N/A
$$

SUPPLEMENTAL OBSERVATIONS (EAST)

CITY           SKY/WX    TMP DP  RH WIND       PRES   REMARKS
CLARKSVILLE      N/A     57  55  94 NE9G25      N/A
TEXARKANA        N/A     57  52  82 NE7         N/A
LINDEN           N/A     57  54  88 E6G17       N/A
CADDO LAKE       N/A     61  57  88 NE5G17      N/A
GILMER           N/A     63  57  82 N9          N/A
HENDERSON        N/A     68  63  83 NE20G29     N/A
LUFKIN           N/A     73  70  88 MISG        N/A
N SABINE NF      N/A     70  68  94 MISG        N/A
S SABINE NF      N/A     70  66  88 CALM        N/A
$$

SUPPLEMENTAL OBSERVATIONS ARE A COLLECTION OF AUTOMATED INSTRUMENTS
THAT ARE MAINTAINED BY A VARIETY OF FEDERAL AND STATE AGENCIES.
CERTAIN ELEMENTS...SUCH AS HUMIDITY VALUES AND SUSTAINED WIND
SPEEDS...MAY BE APPROXIMATED.




USA.gov is the U.S. government's official web portal to all federal, state and local government web resources and services.